Tracking 28052 objects as of 25-Sep-2023
HD Live streaming from Space Station
objects crossing your sky now

STARLINK-4318

Track STARLINK-4318 now!
10-day predictions
STARLINK-4318 is classified as:


NORAD ID: 53086
Int'l Code: 2022-077AV
Perigee: 568.1 km
Apogee: 572.2 km
Inclination: 97.7 °
Period: 95.9 minutes
Semi major axis: 6941 km
RCS: Unknown
Launch date: July 11, 2022
Source: United States (US)
Launch site: AIR FORCE WESTERN TEST RANGE (AFWTR)
Your satellite tracking list
Your tracking list is empty




NASA's NSSDC Master Catalog

Two Line Element Set (TLE):
1 53086U 22077AV  23267.50930358  .00000688  00000-0  58165-4 0  9994
2 53086  97.6556  87.1687 0002952  53.0145 307.1349 15.01264814 66310
Source of the keplerian elements: AFSPC